When you browse on this site, cookies collect data to enhance your experience and personalize the content and advertising you see.
Visit our Privacy Policy to learn more. By continuing to use the site, you agree to this use of cookies and data.
  • In Spain
  • List of Countries
  • For 7 days
  • Water Temperature
  • Weather Map
  • Weather Widgets
  • user-avatar
    Login

    Hourly Weather Parral

    Today, 23 February, Sunday

    Time Temperature Precipitation Wind Pressure Humidity
    00:00 +12°C° 0 mm 1 mps 744 mmHg 84%
    01:00 +11°C° 0 mm 0 mps 744 mmHg 85%
    02:00 +10°C° 0 mm 0 mps 744 mmHg 86%
    03:00 +10°C° 0 mm 0 mps 744 mmHg 86%
    04:00 +10°C° 0 mm 0 mps 744 mmHg 87%
    05:00 +11°C° 0 mm 0 mps 744 mmHg 81%
    06:00 +13°C° 0 mm 0 mps 744 mmHg 76%
    07:00 +14°C° 0 mm 0 mps 744 mmHg 70%
    08:00 +20°C° 0 mm 1 mps 745 mmHg 59%
    09:00 +23°C° 0 mm 1 mps 745 mmHg 47%
    10:00 +27°C° 0 mm 2 mps 745 mmHg 36%
    11:00 +30°C° 0 mm 2 mps 745 mmHg 30%
    12:00 +32°C° 0 mm 2 mps 745 mmHg 24%
    13:00 +35°C° 0 mm 2 mps 745 mmHg 19%
    14:00 +35°C° 0 mm 4 mps 745 mmHg 20%
    15:00 +34°C° 0 mm 5 mps 745 mmHg 21%
    16:00 +33°C° 0 mm 7 mps 745 mmHg 22%
    17:00 +28°C° 0 mm 5 mps 745 mmHg 34%
    18:00 +23°C° 0 mm 4 mps 745 mmHg 46%
    19:00 +18°C° 0 mm 2 mps 745 mmHg 57%
    20:00 +16°C° 0 mm 2 mps 746 mmHg 67%
    21:00 +14°C° 0 mm 1 mps 746 mmHg 78%
    22:00 +12°C° 0 mm 1 mps 746 mmHg 88%
    23:00 +12°C° 0 mm 1 mps 746 mmHg 89%

    Tomorrow, 24 February, Monday

    Time Temperature Precipitation Wind Pressure Humidity
    00:00 +11°C° 0 mm 1 mps 746 mmHg 90%
    01:00 +9°C° 0 mm 0 mps 746 mmHg 92%
    02:00 +10°C° 0 mm 1 mps 746 mmHg 92%
    03:00 +10°C° 0 mm 1 mps 746 mmHg 93%
    04:00 +10°C° 0 mm 1 mps 745 mmHg 94%
    05:00 +11°C° 0 mm 1 mps 746 mmHg 90%
    06:00 +12°C° 0 mm 1 mps 746 mmHg 85%
    07:00 +13°C° 0 mm 1 mps 746 mmHg 81%
    08:00 +15°C° 0 mm 2 mps 746 mmHg 71%
    09:00 +18°C° 0 mm 3 mps 746 mmHg 62%
    10:00 +20°C° 0 mm 4 mps 746 mmHg 52%
    11:00 +22°C° 0 mm 4 mps 746 mmHg 44%
    12:00 +25°C° 0 mm 4 mps 745 mmHg 37%
    13:00 +27°C° 0 mm 3 mps 745 mmHg 29%
    14:00 +27°C° 0 mm 3 mps 745 mmHg 25%
    15:00 +28°C° 0 mm 4 mps 745 mmHg 22%
    16:00 +29°C° 0 mm 4 mps 745 mmHg 18%
    17:00 +26°C° 0 mm 4 mps 745 mmHg 24%
    18:00 +22°C° 0 mm 4 mps 745 mmHg 29%
    19:00 +19°C° 0 mm 4 mps 746 mmHg 35%
    20:00 +18°C° 0 mm 4 mps 746 mmHg 41%
    21:00 +16°C° 0 mm 3 mps 747 mmHg 47%
    22:00 +14°C° 0 mm 3 mps 747 mmHg 53%
    23:00 +13°C° 0 mm 3 mps 747 mmHg 57%

    Day after tomorrow, 25 February, Tuesday

    Time Temperature Precipitation Wind Pressure Humidity
    00:00 +13°C° 0 mm 3 mps 746 mmHg 60%
    01:00 +12°C° 0 mm 3 mps 746 mmHg 64%
    02:00 +11°C° 0 mm 3 mps 746 mmHg 70%
    03:00 +10°C° 0 mm 3 mps 746 mmHg 76%
    04:00 +10°C° 0 mm 3 mps 746 mmHg 83%
    05:00 +11°C° 0 mm 3 mps 746 mmHg 78%
    06:00 +12°C° 0 mm 3 mps 746 mmHg 73%
    07:00 +13°C° 0 mm 3 mps 746 mmHg 68%
    08:00 +18°C° 0 mm 3 mps 746 mmHg 54%
    09:00 +22°C° 0 mm 3 mps 746 mmHg 41%
    10:00 +26°C° 0 mm 4 mps 746 mmHg 28%
    11:00 +29°C° 0 mm 4 mps 746 mmHg 24%
    12:00 +32°C° 0 mm 4 mps 746 mmHg 19%
    13:00 +34°C° 0 mm 4 mps 745 mmHg 15%
    14:00 +34°C° 0 mm 4 mps 745 mmHg 13%
    15:00 +35°C° 0 mm 4 mps 745 mmHg 12%
    16:00 +35°C° 0 mm 5 mps 745 mmHg 11%
    17:00 +32°C° 0 mm 4 mps 745 mmHg 14%
    18:00 +28°C° 0 mm 4 mps 746 mmHg 18%
    19:00 +23°C° 0 mm 4 mps 746 mmHg 21%
    20:00 +21°C° 0 mm 3 mps 746 mmHg 28%
    21:00 +19°C° 0 mm 3 mps 746 mmHg 34%
    22:00 +17°C° 0 mm 3 mps 746 mmHg 40%
    23:00 +16°C° 0 mm 3 mps 746 mmHg 46%

    26 February, Wednesday

    Time Temperature Precipitation Wind Pressure Humidity
    00:00 +14°C° 0 mm 3 mps 745 mmHg 52%
    01:00 +13°C° 0 mm 3 mps 745 mmHg 57%
    02:00 +12°C° 0 mm 3 mps 745 mmHg 61%
    03:00 +12°C° 0 mm 2 mps 745 mmHg 65%
    04:00 +10°C° 0 mm 2 mps 745 mmHg 69%
    05:00 +12°C° 0 mm 2 mps 745 mmHg 63%
    06:00 +13°C° 0 mm 2 mps 745 mmHg 57%
    07:00 +15°C° 0 mm 2 mps 745 mmHg 52%
    08:00 +19°C° 0 mm 2 mps 744 mmHg 41%
    09:00 +24°C° 0 mm 2 mps 744 mmHg 31%
    10:00 +28°C° 0 mm 3 mps 744 mmHg 21%
    11:00 +31°C° 0 mm 3 mps 744 mmHg 17%
    12:00 +34°C° 0 mm 3 mps 744 mmHg 13%
    13:00 +37°C° 0 mm 3 mps 744 mmHg 10%
    14:00 +37°C° 0 mm 3 mps 743 mmHg 9%
    15:00 +38°C° 0 mm 3 mps 743 mmHg 8%
    16:00 +38°C° 0 mm 2 mps 743 mmHg 8%
    17:00 +34°C° 0 mm 3 mps 743 mmHg 13%
    18:00 +29°C° 0 mm 3 mps 743 mmHg 18%
    19:00 +25°C° 0 mm 3 mps 744 mmHg 23%
    20:00 +21°C° 0 mm 2 mps 744 mmHg 29%
    21:00 +20°C° 0 mm 1 mps 744 mmHg 36%
    22:00 +15°C° 0 mm 0 mps 744 mmHg 43%
    23:00 +14°C° 0 mm 0 mps 744 mmHg 45%

    27 February, Thursday

    Time Temperature Precipitation Wind Pressure Humidity
    00:00 +14°C° 0 mm 0 mps 743 mmHg 47%
    01:00 +13°C° 0 mm 0 mps 743 mmHg 49%
    02:00 +12°C° 0 mm 0 mps 743 mmHg 53%
    03:00 +12°C° 0 mm 0 mps 743 mmHg 57%
    04:00 +11°C° 0 mm 0 mps 743 mmHg 60%
    05:00 +13°C° 0 mm 0 mps 744 mmHg 57%
    06:00 +14°C° 0 mm 0 mps 744 mmHg 53%
    07:00 +18°C° 0 mm 1 mps 744 mmHg 49%
    08:00 +22°C° 0 mm 1 mps 744 mmHg 40%
    09:00 +25°C° 0 mm 1 mps 744 mmHg 31%
    10:00 +29°C° 0 mm 1 mps 744 mmHg 21%
    11:00 +32°C° 0 mm 2 mps 744 mmHg 18%
    12:00 +35°C° 0 mm 2 mps 744 mmHg 15%
    13:00 +37°C° 0 mm 2 mps 744 mmHg 11%
    14:00 +37°C° 0 mm 3 mps 744 mmHg 12%
    15:00 +37°C° 0 mm 4 mps 744 mmHg 12%
    16:00 +37°C° 0 mm 4 mps 743 mmHg 12%
    17:00 +32°C° 0 mm 4 mps 744 mmHg 22%
    18:00 +26°C° 0 mm 3 mps 744 mmHg 32%
    19:00 +20°C° 0 mm 2 mps 744 mmHg 43%
    20:00 +18°C° 0 mm 2 mps 744 mmHg 50%
    21:00 +16°C° 0 mm 1 mps 745 mmHg 58%
    22:00 +15°C° 0 mm 1 mps 745 mmHg 66%
    23:00 +14°C° 0 mm 1 mps 745 mmHg 69%

    28 February, Friday

    Time Temperature Precipitation Wind Pressure Humidity
    00:00 +12°C° 0 mm 0 mps 744 mmHg 73%
    01:00 +11°C° 0 mm 0 mps 744 mmHg 77%
    02:00 +11°C° 0 mm 0 mps 744 mmHg 78%
    03:00 +11°C° 0 mm 0 mps 745 mmHg 79%
    04:00 +10°C° 0 mm 0 mps 745 mmHg 80%
    05:00 +12°C° 0 mm 0 mps 745 mmHg 76%
    06:00 +14°C° 0 mm 1 mps 745 mmHg 72%
    07:00 +16°C° 0 mm 1 mps 746 mmHg 68%
    08:00 +20°C° 0 mm 1 mps 746 mmHg 57%
    09:00 +24°C° 0 mm 2 mps 746 mmHg 47%
    10:00 +27°C° 0 mm 2 mps 746 mmHg 36%
    11:00 +29°C° 0 mm 2 mps 746 mmHg 30%
    12:00 +33°C° 0 mm 3 mps 746 mmHg 25%
    13:00 +35°C° 0 mm 3 mps 746 mmHg 19%
    14:00 +36°C° 0 mm 3 mps 745 mmHg 17%
    15:00 +36°C° 0 mm 3 mps 745 mmHg 15%
    16:00 +37°C° 0 mm 3 mps 745 mmHg 14%
    17:00 +33°C° 0 mm 3 mps 745 mmHg 21%
    18:00 +29°C° 0 mm 3 mps 746 mmHg 29%
    19:00 +25°C° 0 mm 3 mps 746 mmHg 36%
    20:00 +22°C° 0 mm 3 mps 746 mmHg 43%
    21:00 +20°C° 0 mm 2 mps 746 mmHg 49%
    22:00 +18°C° 0 mm 2 mps 746 mmHg 56%
    23:00 +17°C° 0 mm 2 mps 746 mmHg 60%
    Show more